[[{"header":{"parameterUnit":"m.s-1","parameterCategory":1,"la1":30.2991,"la2":30.254,"lo1":-89.0895,"lo2":-89.0444,"dy":0.0017,"dx":0.0017,"nx":28,"ny":28,"refTime":"2026-02-17T09:00:00:Z","depth":0,"parameterNumber":2,"parameterNumberName":"U-component_of_WINDS"},"data":[0,0,0,0,0,0,0,0,0,0,0,0,0,0,0,0,0,0,0,0,0,0,0,0,0,0,0,0,0,0,0,0,0,0,0,0,0,0,0,0,0,0,0,0,0,0,0,0,0,0,0,0,0,0,0,0,0,0,0.4629,0.463,0,0.4752,0.4753,0.4754,0.4797,0.4796,0.4796,0.4795,0.4928,0.4932,0.4936,0,0,0,0,0,0,0,0,0,0,0,0,0,0.4436,0.444,0.4629,0.463,0.4632,0.4751,0.4753,0.4755,0.4797,0.4796,0.4796,0.4795,0.4927,0.4931,0.4936,0,0,0,0,0,0,0,0,0,0,0,0,0,0.4536,0.4441,0.4628,0.4667,0.4672,0.4751,0.4753,0.4755,0.4797,0.4796,0.4796,0.4795,0.4925,0.4931,0.4937,0.4989,0,0,0.4955,0.4958,0,0,0,0,0,0,0,0,0.453,0.4543,0.466,0.4664,0.467,0.4758,0.4734,0.4834,0.4797,0.475,0.4795,0.4794,0.4873,0.4883,0.4908,0.4995,0.5001,0.4956,0.4959,0.4962,0.4964,0,0,0,0,0,0,0,0.4523,0.4538,0.4677,0.4661,0.4668,0.468,0.4693,0.4753,0.4814,0.4754,0.4757,0.4771,0.4875,0.4902,0.4911,0.5003,0.4956,0.4961,0.4965,0.4967,0.514,0.5141,0,0,0,0,0,0,0.4509,0.4532,0.4674,0.4681,0.4596,0.4684,0.4699,0.4731,0.4813,0.4825,0.4771,0.4772,0.4892,0.4904,0.4916,0.4983,0.4962,0.4968,0.4971,0.5139,0.514,0.5141,0,0,0,0,0,0,0.4505,0.4521,0.4669,0.4607,0.4627,0.4688,0.4723,0.4733,0.476,0.4826,0.4838,0.4787,0.4892,0.4908,0.497,0.4988,0.497,0.4976,0.5138,0.5139,0.514,0.5117,0,0,0,0,0,0,0.4499,0.4519,0.4538,0.4607,0.463,0.4719,0.4724,0.4736,0.4769,0.4772,0.4844,0.4856,0.4892,0.4961,0.4976,0.4996,0.498,0.5136,0.5138,0.514,0.5116,0.5117,0.5118,0,0,0,0,0,0.4492,0.4528,0.4539,0.4556,0.4655,0.472,0.4733,0.4773,0.4771,0.4791,0.4834,0.4853,0.4983,0.4967,0.4984,0.5007,0.5135,0.5138,0.514,0.5116,0.5117,0.5118,0,0,0,0,0,0,0.4463,0.4538,0.4551,0.461,0.4658,0.4727,0.4754,0.4773,0.4824,0.4824,0.4873,0.4889,0.4948,0.4984,0.4964,0.5061,0.5061,0.5066,0.5036,0.5038,0.5039,0.503,0.4985,0,0,0,0,0,0.4462,0.4507,0.4571,0.4618,0.464,0.4693,0.4723,0.4749,0.4801,0.4822,0.4869,0.4921,0.4974,0.5008,0.506,0.5121,0.5138,0.5145,0.5146,0.5146,0.5151,0.5187,0.5191,0.5148,0.5148,0.5148,0,0,0.4464,0.4511,0.4536,0.4613,0.4653,0.47,0.471,0.4759,0.4795,0.4831,0.4892,0.4928,0.499,0.5051,0.5081,0.5083,0.5166,0.5149,0.5149,0.5154,0.519,0.5194,0.5197,0.515,0.515,0.5149,0,0,0.4491,0.453,0.4573,0.4612,0.4671,0.4706,0.4716,0.4781,0.4806,0.4868,0.4896,0.494,0.5029,0.5071,0.5105,0.5146,0.5166,0.5161,0.5167,0.5201,0.5205,0.5208,0.5224,0.5229,0.5166,0.5166,0.5166,0,0.4486,0.4556,0.4593,0.464,0.4674,0.4705,0.475,0.4787,0.4861,0.4885,0.4884,0.4996,0.504,0.5113,0.5122,0.5148,0.5162,0.5154,0.5201,0.5204,0.5208,0.5224,0.523,0.5165,0.5165,0.5165,0.5165,0,0.4547,0.4595,0.4623,0.4691,0.4727,0.4773,0.482,0.4852,0.4875,0.4909,0.4973,0.5025,0.5088,0.5107,0.5131,0.5184,0.5183,0.5191,0.5191,0.5211,0.5227,0.5233,0.5164,0.5164,0.5164,0.5164,0,0,0.4562,0.4648,0.4658,0.4689,0.4756,0.4795,0.4842,0.4902,0.493,0.4979,0.5022,0.5095,0.5103,0.5141,0.5169,0.5199,0.5229,0.5204,0.5206,0.5208,0.5292,0.5287,0.5293,0.5242,0.5243,0.5244,0.5287,0,0.4599,0.4683,0.4717,0.4787,0.4832,0.4861,0.4903,0.495,0.4983,0.5028,0.5066,0.5117,0.5123,0.5146,0.5176,0.5219,0.5247,0.5216,0.5284,0.5286,0.527,0.5301,0.5296,0.5335,0.5294,0.5295,0.5295,0,0.4654,0.4701,0.4773,0.4834,0.4855,0.4891,0.4948,0.499,0.5044,0.5066,0.5106,0.5133,0.5186,0.518,0.5255,0.5233,0.5263,0.5288,0.529,0.53,0.5293,0.5314,0.5348,0.5354,0.5305,0.5305,0.5304,0,0.4658,0.474,0.4795,0.482,0.4892,0.4917,0.4949,0.5001,0.5035,0.5085,0.5108,0.5164,0.5196,0.5239,0.5281,0.5273,0.5352,0.535,0.5374,0.5373,0.5391,0.539,0.5433,0.5407,0.5407,0.5407,0.5406,0,0.4697,0.4741,0.4798,0.4831,0.4882,0.4921,0.497,0.5004,0.5051,0.5093,0.5122,0.5161,0.5212,0.5258,0.5291,0.5349,0.5362,0.5383,0.5392,0.5382,0.538,0.5404,0.5403,0.5408,0.5408,0.5407,0.5407,0,0.4712,0.4752,0.4813,0.4875,0.4891,0.4926,0.498,0.5015,0.5048,0.5101,0.5116,0.517,0.5226,0.527,0.5344,0.5366,0.5427,0.5435,0.5408,0.5413,0.5435,0.5433,0.5497,0.5508,0.5472,0.5472,0.5473,0,0.4736,0.477,0.4834,0.4863,0.4894,0.494,0.4974,0.5014,0.5048,0.5111,0.5138,0.5195,0.5243,0.5332,0.5379,0.5435,0.5447,0.5465,0.5456,0.5445,0.5449,0.5448,0.5452,0.5467,0.5467,0.5467,0.5467,0,0.4773,0.479,0.4836,0.4888,0.4927,0.4971,0.5015,0.5038,0.5087,0.5124,0.5179,0.5216,0.529,0.5348,0.5408,0.5443,0.5465,0.5469,0.5478,0.547,0.5453,0.5464,0.5413,0.5468,0.5468,0.5468,0.5468,0.5468,0.4795,0.4826,0.4876,0.4926,0.4963,0.5004,0.5039,0.5076,0.5123,0.5185,0.5206,0.5264,0.5317,0.54,0.5435,0.5482,0.5484,0.5497,0.5501,0.5503,0.5503,0.5443,0.5494,0.5494,0.5494,0.5494,0.5494,0,0.4835,0.4868,0.4913,0.4974,0.5013,0.5025,0.5075,0.5109,0.5158,0.5205,0.525,0.5315,0.537,0.542,0.5478,0.5507,0.5518,0.5521,0.5521,0.5529,0.5497,0.5485,0.5511,0.5511,0.5511,0.5511,0.5511,0.5511,0.4861,0.4915,0.4938,0.5012,0.5045,0.51,0.5128,0.5166,0.5203,0.5273,0.5318,0.5349,0.5398,0.5459,0.5511,0.5524,0.5545,0.5546,0.5562,0.5533,0.5531,0.5529,0.5517,0.555,0.555,0.559,0.559,0.5591]},{"header":{"parameterUnit":"m.s-1","parameterCategory":1,"la1":30.2991,"la2":30.254,"lo1":-89.0895,"lo2":-89.0444,"dy":0.0017,"dx":0.0017,"nx":28,"ny":28,"refTime":"2026-02-17T09:00:00:Z","depth":0,"parameterNumber":3,"parameterNumberName":"V-component_of_WINDS"},"data":[0,0,0,0,0,0,0,0,0,0,0,0,0,0,0,0,0,0,0,0,0,0,0,0,0,0,0,0,0,0,0,0,0,0,0,0,0,0,0,0,0,0,0,0,0,0,0,0,0,0,0,0,0,0,0,0,0,0,3.339,3.3391,0,3.351,3.3511,3.3512,3.3488,3.3486,3.3484,3.3482,3.3607,3.3612,3.3618,0,0,0,0,0,0,0,0,0,0,0,0,0,3.3142,3.3147,3.339,3.3391,3.3393,3.3509,3.3511,3.3513,3.3489,3.3486,3.3483,3.3481,3.3605,3.3612,3.3618,0,0,0,0,0,0,0,0,0,0,0,0,0,3.3255,3.3149,3.339,3.3395,3.3397,3.3509,3.3511,3.3513,3.3489,3.3486,3.3483,3.348,3.3603,3.3611,3.3619,3.3734,0,0,3.3644,3.3647,0,0,0,0,0,0,0,0,3.3248,3.3264,3.3393,3.3395,3.3397,3.3481,3.347,3.3587,3.349,3.3454,3.3482,3.3478,3.3568,3.3579,3.3608,3.374,3.3746,3.3644,3.3649,3.3653,3.3655,0,0,0,0,0,0,0,3.3241,3.3259,3.3437,3.3395,3.3397,3.3392,3.3404,3.3492,3.3528,3.3457,3.3456,3.347,3.3568,3.3601,3.3611,3.3747,3.3644,3.3651,3.3656,3.3659,3.3981,3.3984,0,0,0,0,0,0,3.3231,3.3252,3.3433,3.3441,3.3313,3.3399,3.3413,3.3457,3.3527,3.3534,3.3473,3.3468,3.3588,3.3602,3.3615,3.3756,3.3653,3.366,3.3665,3.3977,3.3981,3.3985,0,0,0,0,0,0,3.3225,3.3247,3.3429,3.3346,3.3369,3.3407,3.3457,3.3461,3.3493,3.3539,3.3545,3.3499,3.3586,3.3604,3.3705,3.376,3.3664,3.3671,3.3973,3.3978,3.3983,3.4039,0,0,0,0,0,0,3.3218,3.3245,3.3289,3.3347,3.3373,3.3516,3.346,3.3466,3.3507,3.3503,3.3565,3.3572,3.3585,3.3693,3.3713,3.377,3.3677,3.3968,3.3975,3.3982,3.4032,3.4045,3.4057,0,0,0,0,0,3.321,3.3301,3.3292,3.3314,3.3429,3.3519,3.3534,3.3547,3.3512,3.3557,3.3585,3.357,3.375,3.3704,3.3726,3.3786,3.3965,3.3973,3.3981,3.4027,3.4043,3.4056,0,0,0,0,0,0,3.3249,3.3308,3.3299,3.3411,3.346,3.3515,3.3572,3.3563,3.3624,3.3617,3.363,3.3645,3.3748,3.3776,3.3723,3.3901,3.3853,3.3866,3.3879,3.3895,3.3907,3.39,3.3684,0,0,0,0,0,3.3271,3.3338,3.3386,3.3481,3.3506,3.3535,3.3574,3.3579,3.3631,3.3652,3.3688,3.374,3.3808,3.3852,3.3917,3.4035,3.4049,3.4087,3.4099,3.4109,3.4121,3.4187,3.4204,3.4013,3.4013,3.4013,0,0,3.3317,3.3357,3.3399,3.349,3.3528,3.3599,3.3553,3.3629,3.3682,3.3664,3.3762,3.379,3.3848,3.3958,3.4008,3.3985,3.4177,3.412,3.4127,3.4134,3.4197,3.4215,3.4231,3.4018,3.4017,3.4016,0,0,3.3437,3.3474,3.3557,3.3596,3.3654,3.3673,3.3693,3.3748,3.3766,3.3864,3.3852,3.3915,3.4032,3.4074,3.4111,3.4245,3.4234,3.4265,3.4331,3.4394,3.441,3.4423,3.4473,3.4491,3.4277,3.4277,3.4277,0,3.3487,3.3593,3.3601,3.3679,3.372,3.3704,3.3789,3.3827,3.3904,3.3933,3.3905,3.4051,3.4089,3.4209,3.4242,3.4271,3.4295,3.426,3.4406,3.442,3.4433,3.4481,3.4499,3.428,3.428,3.428,3.4279,0,3.3652,3.3725,3.3785,3.386,3.3906,3.3987,3.4009,3.4055,3.4055,3.4076,3.4177,3.4221,3.4295,3.4323,3.4324,3.4444,3.4428,3.4403,3.4355,3.4455,3.45,3.4518,3.4286,3.4284,3.4283,3.4282,0,0,3.3804,3.388,3.3903,3.3936,3.3999,3.4056,3.4135,3.4207,3.4248,3.43,3.4369,3.4467,3.4444,3.4486,3.4491,3.4546,3.4652,3.4515,3.4517,3.4541,3.4788,3.4809,3.483,3.4643,3.4647,3.465,3.4784,0,3.3932,3.4073,3.4082,3.421,3.4279,3.4264,3.4334,3.438,3.4402,3.4463,3.4486,3.4557,3.4521,3.4546,3.4599,3.4628,3.4702,3.4618,3.4709,3.4713,3.4699,3.4853,3.4875,3.5,3.4802,3.4805,3.4807,0,3.4101,3.4158,3.4293,3.4346,3.4375,3.4438,3.4504,3.4562,3.4614,3.4626,3.4671,3.4668,3.4751,3.4697,3.4812,3.4755,3.4792,3.4811,3.4816,3.4828,3.4768,3.4871,3.504,3.506,3.4834,3.4832,3.483,0,3.4201,3.4312,3.4407,3.4436,3.4499,3.4544,3.4572,3.462,3.4663,3.472,3.4748,3.4815,3.4852,3.4904,3.4919,3.4878,3.5034,3.4981,3.5048,3.5048,3.5085,3.5083,3.5264,3.5104,3.5103,3.5103,3.5102,0,3.4345,3.4429,3.4453,3.4512,3.4605,3.4614,3.4706,3.4732,3.4775,3.4839,3.483,3.489,3.4905,3.4969,3.4981,3.5075,3.5091,3.5104,3.5107,3.5107,3.5106,3.5135,3.5128,3.5108,3.5107,3.5106,3.5105,0,3.4475,3.4494,3.4597,3.4648,3.4662,3.4729,3.4773,3.483,3.4848,3.493,3.4949,3.498,3.5054,3.5073,3.5162,3.517,3.5282,3.5275,3.5265,3.5266,3.5332,3.5327,3.5541,3.5571,3.5388,3.5389,3.5391,0,3.4567,3.4631,3.4688,3.473,3.476,3.4828,3.487,3.4881,3.4926,3.4989,3.5039,3.5111,3.5171,3.529,3.532,3.5388,3.5385,3.5455,3.5395,3.5393,3.5389,3.5386,3.5394,3.5467,3.5469,3.5471,3.5472,0,3.473,3.4735,3.4797,3.4863,3.4914,3.4966,3.5016,3.5051,3.5068,3.5119,3.5194,3.524,3.533,3.5403,3.5471,3.55,3.5491,3.549,3.551,3.5512,3.5505,3.5512,3.5299,3.5486,3.5485,3.5484,3.5483,3.5482,3.4845,3.4902,3.4951,3.502,3.5058,3.5105,3.5161,3.5186,3.5249,3.5323,3.5324,3.5407,3.5456,3.5547,3.558,3.5645,3.5624,3.5651,3.5659,3.5667,3.5674,3.5491,3.5657,3.5656,3.5656,3.5656,3.5655,0,3.501,3.504,3.5103,3.5173,3.5227,3.521,3.5264,3.5311,3.5384,3.543,3.5488,3.5575,3.5645,3.568,3.5749,3.5795,3.5792,3.5813,3.5812,3.5819,3.5687,3.5665,3.5814,3.5814,3.5814,3.5814,3.5814,3.5814,3.5102,3.5197,3.5209,3.5323,3.5352,3.5432,3.5465,3.5508,3.5545,3.5642,3.57,3.5722,3.5764,3.5836,3.59,3.5908,3.5936,3.596,3.5967,3.5844,3.5828,3.5813,3.5792,3.5965,3.5966,3.6093,3.6095,3.6096]}]]